Terminal Aerodrome Forecast
Issued by NWS

Home | Current Version | Previous Version | Text Only | Print | Product List | Glossary Off
Versions: 1 2 3 4 5 6 7 8 9 10 11 12 13 14 15 16 17 18 19 20 21 22 23 24 25 26 27 28 29 30 31 32

000
FTUS43 KLOT 260300 AAA
TAFDPA
TAF AMD
KDPA 260300Z 2603/2624 17003KT P6SM FEW015
     FM261300 15004KT P6SM BKN200
     FM262100 07005KT P6SM OVC150=

USA.gov is the U.S. government's official web portal to all federal, state and local government web resources and services.